010226 808  0.2-  0.1+    020207 704  0.1+  1.0+    030131 704  1.4+  0.1+  

010226 808  0.6+  0.5+    020207 704  0.4-  1.0+    030131 699  1.3-  0.6-  

010226 808  0.5-  0.5+    020208 170  0.5+  0.0     030131 704  0.5+  0.3+  

010226 808  0.4+  0.4+    020208 170  0.1-  0.4+    030131 699  0.3+  0.0   

010311 428  0.3+  0.0     020209 049  1.0+  0.9-    030201 A02  0.9-  0.0   

010311 428  0.2+  0.5-    020209 049  0.5+  0.2-    030201 A02  1.7-  0.2+  

010311 428  0.2+  0.4-    020209 049  0.3-  0.4-    030201 A02  1.0-  0.9+  

010311 428  0.2+  0.4-    020209 232 (2.2-  0.4-)   030201 H41 (0.4-  3.5-) 

010313 322  0.2-  0.5-    020210 232  0.0   0.1+    030201 H41  1.0+  0.6+  

010313 322  0.0   0.6-    020210 232 (1.3-  2.1-)   030202 A02  0.9-  1.6-  

010313 322  0.1-  0.1-    020210 342  0.8+  0.2-    030202 A02  0.7-  1.4-  

010315 300  0.1+  0.5-    020210 342  0.9+  0.7-    030202 A02  0.3-  1.2-  

010315 360  0.2+  0.5-    020212 360  0.3+  0.4-    030202 644  0.6+  0.8+  

010315 300  0.1+  0.1-    020212 360  0.5+  0.5-    030202 644  0.1-  0.8+  

010315 360  0.3+  0.2-    020212 360  0.5+  0.3-    030202 644  0.7+  0.7+  

010315 300  0.1+  0.2-    020213 049  0.3-  0.2+    030202 213  0.5-  0.9+  

010315 300  0.0   0.2-    020213 049  0.4-  0.2+    030202 213 (2.5+  3.1-) 

010316 921 (2.8-  1.0+)   020214 049  0.4-  0.1-    030204 H43 (1.0-  2.3+) 

010316 921  1.0-  1.5-    020216 704  0.3-  1.0+    030204 H43 (8.1-  2.7+) 

010316 921  0.5+  1.6+    020216 704  0.7+  0.6+    030204 H43 (6.1-  1.1+) 

010318 349  0.8+  0.2-    020216 704  0.7+  0.3+    030205 H43 (7.1+  0.1-) 

010318 349  0.3-  0.2+    020216 704  0.6+  0.4+    030205 H43  0.4-  0.5+  

010318 349  0.4-  0.2-    020216 367  1.0+  0.0     030206 360  0.1+  0.0   

010318 349  0.3+  0.3-    020216 367  0.3-  0.2+    030206 360  0.3+  0.2-  

010319 352  0.1+  0.3-    020216 367  0.3+  0.8+    030208 H41 (3.0+  0.6-) 

010319 352  1.8-  0.4-    020218 170  0.8+  0.2+    030208 H41 (2.7+  0.2-) 

010324 699  0.1-  0.5+    020218 170  0.2-  0.5-    030208 118  0.5-  1.4-  

010324 699  0.4+  0.1+    020219 322  0.4+  0.5-    030208 118  0.4+  0.1-  

010324 608  1.0+  1.8+    020219 322  1.0+  0.4-    030208 118  0.6+  0.2+  

010324 699 (1.9+  2.2-)   020219 322  0.7+  0.4-    030208 118  1.5+  1.2-  

010324 608  0.8+  1.7+    020219 349  0.5-  0.3+    030208 118  0.5+  0.3-  

010324 608  0.9+  1.4+    020219 349  0.6-  0.6-    030209 A02  1.4-  0.7+  

010324 699  1.7+  1.9-    020219 349  1.1-  0.2-    030209 A02  1.4-  0.7+  

010325 318  0.0   0.7+    020219 170  0.5+  0.5-    030209 A02  1.8+  0.2-  

010325 318  0.1-  0.5+    020219 170  0.9-  0.6+    030211 H43  1.4-  1.9-  

010327 322  0.2+  0.0     020220 704  0.2+  0.1+    030211 H43  0.5-  0.1+  

010327 322  0.0   0.1-    020220 704  0.3+  0.9+    030212 636  0.2+  0.5+  

010327 322  0.4+  0.1-    020220 704  0.4-  1.2+    030212 636  0.2+  0.4+  

010330 428  0.5-  0.6+    020220 704  0.1+  0.9+    030212 636 (1.0+  2.0+) 

010330 428  0.1-  0.4-    020220 704  0.6-  0.2+    030223 H43  1.9-  1.7-  

010331 921 (2.9-  5.6+)   020224 644  0.2-  0.5+    030223 H43 (0.2-  3.7-) 

010331 921 (2.8-  5.1+)   020224 644  0.0   0.5+    030226 E04  0.1-  0.2+  

010331 360  0.2+  0.5-    020224 644  0.3+  0.5+    030226 E04  0.5+  0.2+  

010331 360  0.1+  0.5-    020302 232  0.3-  1.8-    030226 E04  0.0   0.5-  

010331 046  0.3+  0.0     020302 232  0.5-  0.6-    030227 246  0.0   0.7-  

010331 046  0.4+  0.2-    020303 246  0.3+  0.4-    030227 246  0.1-  0.3-  

010331 046  0.6+  0.0     020303 246  0.6+  0.1-    030227 246  0.1+  0.5-  

010331 046  0.5+  0.2-    020303 246  0.3+  0.1+    030227 246  0.1-  0.4-  

010401 349  0.3-  0.6+    020303 246  0.7+  0.3-    030227 246  0.2+  0.0   

010401 349  0.6-  1.7+    020303 246  0.3+  0.1-    030227 246  0.1-  0.4-  

010401 349  0.7+  0.2+    020303 246  0.0   0.2+    030305 704  0.7+  0.4+  

010401 349  0.3+  0.2+    020304 703  0.4+  1.0-    030305 704  0.4-  0.1-  

010401 046  0.5+  0.2+    020304 703  0.8+  0.9-    030305 704  0.6-  1.3+  

010401 046  0.6+  0.0     020304 703  0.0   0.0     030306 704  0.1-  1.8+  

010401 046  0.6+  0.3+    020304 703  0.2+  0.1-    030306 704  0.4-  0.8-  

010401 046  0.2+  0.3+    020304 215  0.4+  0.2+    030306 704 (0.6-  2.3+) 

010403 402  0.2-  0.4+    020304 215  1.3+  0.3+    030306 704  0.6+  1.5+  

010403 402  0.4-  0.5+    020304 215  0.7+  0.6-    030306 704  1.0-  0.9+  

010403 402  0.4-  0.2-    020305 699  0.4+  0.7-    030310 699  0.5+  0.9-  

010415 428  0.3-  0.0     020305 699  0.5+  1.1-    030310 699  0.7+  0.6+  

010415 428  0.1-  0.0     020305 699  1.3+  1.8-    030310 699  1.4+  0.4+  

010416 921  0.0   1.3-    020305 699  1.2+  1.2-    030310 699  0.1-  0.1-  

010416 921  0.3-  0.5-    020305 644  0.6-  1.0+    030310 H41 (3.2+  1.5+) 

010416 921 (2.0-  1.5-)   020305 644  0.0   0.7+    030324 240  0.1+  0.1-  

010422 349  0.8-  1.5+    020305 644  0.3-  0.7+    030324 240  0.0   0.0   

010422 349  0.6-  1.1+    020305 611  0.3-  0.7+    030324 240  0.5-  0.2+  

010422 349  0.8-  0.8+    020305 611  0.3+  1.0+    031201 360  0.6+  0.7-  

010422 349  0.2-  1.0+    020309 349  1.8-  0.4-    031201 360  0.7-  0.1+  

010422 900  0.3+  0.6-    020309 349  1.5-  0.5+    031201 360  0.6+  0.5-  

010422 900  0.3+  0.4+    020309 349  1.4-  0.4-    031228 360  0.5+  0.5+  

010422 402  0.1+  0.3+    020309 349  0.2-  0.1+    031228 360  0.3-  0.2+  

010422 402  0.0   0.1-    020309 367  0.0   0.1+    031228 360  0.5-  0.8-  

010422 402  0.2-  0.2+    020309 367  0.5-  0.4+                            



NAKANO

         **** Don't distribute anyone except personal use only ****

                (C) Copyright 2004 OAA/ComputingSection

write mail from CFAD0::NAKANO on 2004-01-21 21:27:50(JST).

 

◎C/2001 B2の軌道と予報位置です



 久万の中村彰正氏は,2003年3月24日以来,途絶えていたこの彗星を2003年

12月1日と28日に観測しました.氏の CCD全光度は,それぞれ,19.1等と18.9

等でした.



    C/2001 B2 (NEAT)                                                      

Epoch 2000 Sept. 13.0 TT = JDT 2451800.5  

T 2000 Sept. 1.88124 TT                                 Nakano

q   5.3064566            (2000.0)            P               Q

z  -0.0005567      Peri.  304.75182     -0.87716094     -0.38946668

 +/-0.0000014      Node   145.08468     -0.07884387     +0.69383835

e   1.0029542      Incl.  150.60884     -0.47367957     +0.60572605

From 511 observations 2001 Jan. 24-2003 Dec. 28, mean residual 0".69.

   (1/a)org.= +0.000187, (1/a)fut.= +0.000306 (+/-0.000001), Q= 8.

 

Date/        TT  R.A.(2000) Decl.     Delta   r     Daily motion  Mag.  Moon Age

              h    h  m       。  ,                      ,  / PA 。  m1      。

2004 Jan. 20 14  08 09.74  +37 00.1   9.116 10.062     8.5 / 288  18.8  161  .03

          21 14  08 09.07  +37 02.7   9.123 10.068     8.5 / 288  18.8  168  .00

          22 14  08 08.39  +37 05.3   9.130 10.073     8.4 / 287  18.8  161  .01

          23 14  08 07.72  +37 07.8   9.137 10.078     8.4 / 287  18.8  149  .04

          24 14  08 07.05  +37 10.2   9.144 10.083     8.4 / 287  18.8  136  .09

          25 14  08 06.37  +37 12.6   9.152 10.089     8.3 / 286  18.8  123  .17

          26 14  08 05.70  +37 14.9   9.160 10.094     8.3 / 286  18.9  110  .25

          27 14  08 05.03  +37 17.2   9.168 10.099     8.3 / 286  18.9   98  .34

          28 14  08 04.36  +37 19.4   9.177 10.104     8.2 / 285  18.9   85  .44

          29 14  08 03.70  +37 21.6   9.186 10.110     8.2 / 285  18.9   74  .53

          30 14  08 03.04  +37 23.7   9.196 10.115     8.1 / 285  18.9   62  .62

          31 14  08 02.38  +37 25.7   9.206 10.120     8.1 / 284  18.9   50  .71

     Feb.  1 14  08 01.72  +37 27.7   9.216 10.126     8.0 / 284  18.9   39  .79

           2 14  08 01.06  +37 29.7   9.226 10.131     8.0 / 284  18.9   28  .86

           3 14  08 00.41  +37 31.6   9.237 10.136     7.9 / 283  18.9   18  .92

           4 14  07 59.77  +37 33.4   9.248 10.141     7.9 / 283  18.9   12  .97

           5 14  07 59.12  +37 35.2   9.259 10.147     7.8 / 283  18.9   17  .99

           6 14  07 58.48  +37 36.9   9.271 10.152     7.7 / 283  18.9   28 1.00

           7 14  07 57.85  +37 38.6   9.283 10.157     7.7 / 282  18.9   40  .98

           8 14  07 57.22  +37 40.2   9.296 10.162     7.6 / 282  18.9   52  .95

           9 14  07 56.59  +37 41.7   9.308 10.168     7.5 / 282  18.9   65  .89

          10 14  07 55.97  +37 43.2   9.321 10.173     7.5 / 281  18.9   79  .81

          11 14  07 55.35  +37 44.7   9.334 10.178     7.4 / 281  18.9   92  .72

          12 14  07 54.74  +37 46.1   9.348 10.183     7.3 / 281  18.9  106  .61

          13 14  07 54.14  +37 47.4   9.362 10.189     7.2 / 280  18.9  120  .50

          14 14  07 53.54  +37 48.7   9.376 10.194     7.1 / 280  18.9  134  .39

          15 14  07 52.94  +37 49.9   9.390 10.199     7.1 / 280  18.9  147  .28

          16 14  07 52.36  +37 51.1   9.405 10.204     7.0 / 279  19.0  160  .18

          17 14  07 51.77  +37 52.2   9.420 10.210     6.9 / 279  19.0  168  .10

          18 14  07 51.20  +37 53.3   9.435 10.215     6.8 / 279  19.0  163  .04

          19 14  07 50.63  +37 54.3   9.451 10.220     6.7 / 278  19.0  151  .01

          20 14  07 50.07  +37 55.3   9.467 10.226     6.6 / 278  19.0  138  .00

          21 14  07 49.51  +37 56.2   9.483 10.231     6.5 / 278  19.0  125  .02

          22 14  07 48.97  +37 57.1   9.499 10.236     6.4 / 277  19.0  112  .06

          23 14  07 48.43  +37 57.9   9.515 10.241     6.3 / 277  19.0   99  .11

          24 14  07 47.89  +37 58.7   9.532 10.247     6.3 / 277  19.0   86  .18

          25 14  07 47.37  +37 59.4   9.549 10.252     6.2 / 276  19.0   74  .27

          26 14  07 46.85  +38 00.1   9.567 10.257     6.1 / 276  19.0   62  .35

          27 14  07 46.34  +38 00.7   9.584 10.262     6.0 / 276  19.0   51  .45

